GW5997 Weather Reports


time (UTC)temp
F
wind
direction
speed
knots
gust
knots
rain 1hr
in
rain 24hr
in
rain mn
in
humidity
%
barometer
mb
20260505113500 77 90 1.7 1.7 0.00 0.00 0.00 83 1017.5
20260505112955 77 96 2.6 3.5 0.00 0.00 0.00 84 1017.4
20260505112453 76 109 1.7 1.7 0.00 0.00 0.00 86 1017.2
20260505111949 76 93 5.2 6.1 0.00 0.00 0.00 86 1017.3
20260505111443 76 110 1.7 1.7 0.00 0.00 0.00 87 1017.3
20260505110940 75 100 3.5 3.5 0.00 0.00 0.00 88 1017.3
20260505110437 75 90 1.7 2.6 0.00 0.00 0.00 88 1017.3
20260505101909 73 80 0.0 0.0 0.00 0.00 0.00 88 1016.3
20260505101408 73 48 0.9 1.7 0.00 0.00 0.00 88 1016.7
20260505100905 74 58 0.0 0.0 0.00 0.00 0.00 88 1016.2
20260505100401 73 88 0.0 0.9 0.00 0.00 0.00 88 1016.3
20260505095857 74 97 0.0 0.0 0.00 0.00 0.00 87 1016.4
20260505095355 74 76 0.0 0.9 0.00 0.00 0.00 87 1016.4
20260505094850 74 85 1.7 1.7 0.00 0.00 0.00 88 1016.5
20260505094347 74 94 0.0 0.0 0.00 0.00 0.00 87 1016.4
20260505093843 74 78 0.0 0.9 0.00 0.00 0.00 87 1016.2
20260505093341 74 102 0.0 0.9 0.00 0.00 0.00 86 1016.4
20260505092838 74 134 2.6 3.5 0.00 0.00 0.00 87 1016.2
20260505092336 74 73 0.9 1.7 0.00 0.00 0.00 87 1016.1
20260505091833 74 179 2.6 2.6 0.00 0.00 0.00 87 1016.2
20260505091331 74 129 1.7 2.6 0.00 0.00 0.00 88 1016.2
20260505090829 73 83 1.7 2.6 0.00 0.00 0.00 88 1016.3
20260505090327 74 102 0.0 0.9 0.00 0.00 0.00 88 1016.1
20260505085824 74 94 0.0 0.0 0.00 0.00 0.00 87 1016.3
20260505085322 74 84 0.0 0.0 0.00 0.00 0.00 87 1016.3
20260505084819 74 93 0.0 0.0 0.00 0.00 0.00 86 1016.2
20260505084317 75 92 0.9 1.7 0.00 0.00 0.00 85 1016.3
20260505083814 75 105 2.6 2.6 0.00 0.00 0.00 86 1016.2
20260505083311 75 94 2.6 2.6 0.00 0.00 0.00 86 1016.2
20260505082808 75 119 0.9 0.9 0.00 0.00 0.00 86 1016.0
20260505082305 75 99 1.7 1.7 0.00 0.00 0.00 86 1016.1
20260505081801 75 97 0.9 1.7 0.00 0.00 0.00 86 1015.9
20260505081258 75 140 0.0 0.9 0.00 0.00 0.00 87 1016.0
20260505080754 75 114 0.9 0.9 0.00 0.00 0.00 88 1016.2
20260505080250 74 153 4.3 6.1 0.00 0.00 0.00 88 1015.8
20260505075746 74 117 0.9 1.7 0.00 0.00 0.00 88 1015.9
20260505075243 74 118 0.9 0.9 0.00 0.00 0.00 89 1015.9
20260505074741 74 108 0.9 1.7 0.00 0.00 0.00 90 1015.9
20260505074238 73 99 0.9 0.9 0.00 0.00 0.00 91 1016.1
20260505073735 73 94 0.0 0.9 0.00 0.00 0.00 91 1015.9
20260505073233 73 59 0.9 0.9 0.00 0.00 0.00 91 1015.7
20260505072729 74 47 0.9 0.9 0.00 0.00 0.00 90 1015.8
20260505072225 74 98 0.0 0.9 0.00 0.00 0.00 90 1016.0
20260505071721 73 165 0.9 1.7 0.00 0.00 0.00 91 1015.8
20260505071218 73 106 0.0 0.9 0.00 0.00 0.00 91 1015.9
20260505070716 73 87 0.0 0.0 0.00 0.00 0.00 91 1016.1
20260505070212 73 63 0.9 0.9 0.00 0.00 0.00 91 1016.2
20260505065708 73 71 0.0 0.9 0.00 0.00 0.00 91 1016.1
20260505065205 73 76 0.0 0.9 0.00 0.00 0.00 90 1015.9
20260505064702 73 76 1.7 1.7 0.00 0.00 0.00 90 1015.9
20260505064200 73 72 0.0 0.0 0.00 0.00 0.00 90 1016.0
20260505063657 73 64 0.9 0.9 0.00 0.00 0.00 90 1016.0
20260505063153 73 92 0.0 0.0 0.00 0.00 0.00 90 1016.2
20260505062649 73 87 0.0 0.0 0.00 0.00 0.00 90 1016.1
20260505062147 73 61 0.9 0.9 0.00 0.00 0.00 90 1016.0
20260505061644 73 68 0.0 0.9 0.00 0.00 0.00 90 1016.2
20260505061142 73 82 0.9 0.9 0.00 0.00 0.00 90 1016.3
20260505060639 73 40 0.0 0.0 0.00 0.00 0.00 90 1016.3
20260505060136 74 84 0.0 0.9 0.00 0.00 0.00 89 1016.1
20260505055631 74 48 0.9 0.9 0.00 0.00 0.00 90 1016.3
20260505055128 74 80 0.0 0.0 0.00 0.00 0.00 90 1016.3
20260505054625 74 105 0.0 0.9 0.00 0.00 0.00 90 1016.3
20260505054123 74 82 0.0 0.0 0.00 0.00 0.00 90 1016.5
20260505053621 74 82 0.0 0.9 0.00 0.00 0.00 89 1016.7
20260505053117 74 94 0.0 0.0 0.00 0.00 0.00 89 1016.9
20260505052614 74 86 0.0 0.0 0.00 0.00 0.00 89 1016.5
20260505052111 74 67 0.0 0.0 0.00 0.00 0.00 89 1016.5
20260505051608 74 65 0.0 0.9 0.00 0.00 0.00 89 1016.7
20260505051106 74 86 0.0 0.9 0.00 0.00 0.00 89 1017.0
20260505050604 74 82 0.9 0.9 0.00 0.00 0.00 89 1016.9
20260505041531 75 93 0.0 0.0 0.00 0.00 0.00 86 1017.5
20260505041029 74 87 2.6 2.6 0.00 0.00 0.00 86 1017.5
20260505040526 74 69 0.0 0.0 0.00 0.00 0.00 86 1017.5
20260505040023 74 99 0.9 0.9 0.00 0.00 0.00 87 1017.6
20260505035519 74 116 0.0 0.0 0.00 0.00 0.00 86 1017.6
20260505035016 74 117 0.0 0.0 0.00 0.00 0.00 86 1018.0
20260505034513 74 117 0.0 0.0 0.00 0.00 0.00 86 1017.8
20260505034010 74 111 0.0 0.0 0.00 0.00 0.00 86 1017.8
20260505033507 74 78 0.9 0.9 0.00 0.00 0.00 86 1017.9
20260505033005 74 187 0.0 0.0 0.00 0.00 0.00 87 1017.9
20260505032502 73 112 0.0 0.0 0.00 0.00 0.00 88 1017.6
20260505031958 73 112 0.0 0.0 0.00 0.00 0.00 88 1017.9
20260505031455 74 112 0.0 0.0 0.00 0.00 0.00 87 1017.9
20260505030952 74 112 0.0 0.0 0.00 0.00 0.00 87 1017.9
20260505030448 74 112 0.0 0.0 0.00 0.00 0.00 87 1017.9
20260505025943 74 112 0.0 0.0 0.00 0.00 0.00 86 1018.1
20260505025441 75 112 0.9 0.9 0.00 0.00 0.00 85 1017.7
20260505024939 75 107 0.0 0.0 0.00 0.00 0.00 84 1018.0
20260505024437 75 108 0.9 0.9 0.00 0.00 0.00 83 1017.8
20260505023933 75 73 0.9 1.7 0.00 0.00 0.00 84 1017.9
20260505023431 75 91 0.9 0.9 0.00 0.00 0.00 84 1017.9
20260505022928 75 100 1.7 1.7 0.00 0.00 0.00 84 1017.9
20260505022426 75 102 0.9 0.9 0.00 0.00 0.00 84 1017.9
20260505021922 75 104 0.9 0.9 0.00 0.00 0.00 84 1017.9
20260505021418 76 98 0.0 0.9 0.00 0.00 0.00 82 1017.8
20260505020914 76 86 0.9 0.9 0.00 0.00 0.00 82 1017.7
20260505020410 76 86 0.9 0.9 0.00 0.00 0.00 82 1017.7
20260505015907 76 83 2.6 2.6 0.00 0.00 0.00 82 1017.5
20260505015404 76 98 0.9 0.9 0.00 0.00 0.00 82 1017.6
20260505014902 76 88 1.7 1.7 0.00 0.00 0.00 82 1017.8
20260505014358 76 93 1.7 2.6 0.00 0.00 0.00 82 1017.4
20260505013855 76 87 2.6 2.6 0.00 0.00 0.00 82 1017.5
20260505013352 76 95 1.7 1.7 0.00 0.00 0.00 82 1017.4
20260505012851 76 90 1.7 1.7 0.00 0.00 0.00 82 1017.4
20260505012348 76 83 1.7 1.7 0.00 0.00 0.00 82 1017.3
20260505011844 76 112 0.0 0.9 0.00 0.00 0.00 82 1017.3
20260505011341 76 102 1.7 1.7 0.00 0.00 0.00 82 1017.2
20260505010837 76 94 1.7 1.7 0.00 0.00 0.00 82 1017.0
20260505010333 76 95 0.9 0.9 0.00 0.00 0.00 83 1017.0
20260505005829 76 103 0.0 0.9 0.00 0.00 0.00 82 1017.0
20260505005326 76 122 0.9 0.9 0.00 0.00 0.00 82 1016.9
20260505004824 76 93 2.6 2.6 0.00 0.00 0.00 81 1016.9
20260505004320 77 105 0.0 0.0 0.00 0.00 0.00 81 1016.8
20260505003817 77 86 1.7 1.7 0.00 0.00 0.00 81 1016.7
20260505003315 76 106 0.9 0.9 0.00 0.00 0.00 82 1016.5
20260505002810 76 77 0.0 0.0 0.00 0.00 0.00 82 1017.0
20260505002308 76 66 0.0 0.9 0.00 0.00 0.00 81 1016.9
20260505001806 77 88 1.7 2.6 0.00 0.00 0.00 81 1016.8
20260505001303 77 64 0.0 0.0 0.00 0.00 0.00 81 1016.5
20260505000800 77 65 0.9 0.9 0.00 0.00 0.00 81 1016.4
20260505000258 77 84 0.9 0.9 0.00 0.00 0.00 80 1016.5
20260504235754 77 114 1.7 1.7 0.00 0.00 0.00 79 1016.7
20260504235250 78 95 1.7 1.7 0.00 0.00 0.00 78 1016.7
20260504234748 78 93 1.7 1.7 0.00 0.00 0.00 78 1016.5
20260504234245 78 85 0.0 0.9 0.00 0.00 0.00 77 1016.4
20260504233741 78 69 0.9 0.9 0.00 0.00 0.00 77 1016.5
20260504233237 78 125 0.9 0.9 0.00 0.00 0.00 76 1016.7
20260504232734 78 85 0.0 0.0 0.00 0.00 0.00 76 1016.7
20260504232231 79 46 0.9 0.9 0.00 0.00 0.00 76 1016.5
20260504231728 79 88 0.0 0.0 0.00 0.00 0.00 76 1016.3
20260504231224 79 30 0.0 0.9 0.00 0.00 0.00 75 1016.5
20260504230720 79 89 1.7 2.6 0.00 0.00 0.00 75 1016.3
20260504230219 79 62 0.0 0.9 0.00 0.00 0.00 75 1016.1
20260504225718 79 51 1.7 1.7 0.00 0.00 0.00 75 1015.9
20260504225213 80 155 4.3 6.1 0.00 0.00 0.00 74 1015.8
20260504224711 80 131 3.5 3.5 0.00 0.00 0.00 74 1016.0
20260504224208 80 65 0.9 0.9 0.00 0.00 0.00 74 1016.0
20260504223704 80 60 0.9 0.9 0.00 0.00 0.00 74 1015.7
20260504223200 80 65 1.7 1.7 0.00 0.00 0.00 74 1015.8
20260504222657 80 61 0.9 1.7 0.00 0.00 0.00 74 1015.7
20260504222153 80 120 0.9 0.9 0.00 0.00 0.00 74 1015.6
20260504221651 81 82 0.0 0.0 0.00 0.00 0.00 73 1015.3
20260504221148 81 68 0.9 0.9 0.00 0.00 0.00 73 1015.3
20260504220644 81 72 0.9 0.9 0.00 0.00 0.00 72 1015.5
20260504220142 81 55 0.9 0.9 0.00 0.00 0.00 72 1015.3
20260504215638 82 99 1.7 2.6 0.00 0.00 0.00 71 1015.1
20260504215136 82 90 0.0 0.0 0.00 0.00 0.00 70 1015.0
20260504214631 83 62 1.7 3.5 0.00 0.00 0.00 69 1015.0
20260504214128 84 49 5.2 7.0 0.00 0.00 0.00 68 1015.1
20260504213625 84 204 3.5 5.2 0.00 0.00 0.00 68 1015.0
20260504213121 84 235 1.7 1.7 0.00 0.00 0.00 68 1014.9
20260504212618 84 58 1.7 1.7 0.00 0.00 0.00 69 1014.8
20260504212115 84 111 1.7 2.6 0.00 0.00 0.00 68 1014.8
20260504211612 84 101 3.5 3.5 0.00 0.00 0.00 67 1014.8
20260504211109 85 71 1.7 3.5 0.00 0.00 0.00 66 1014.7
20260504210606 84 44 3.5 5.2 0.00 0.00 0.00 68 1014.8
20260504205601 84 203 0.9 1.7 0.00 0.00 0.00 68 1014.7
20260504205058 85 36 0.9 1.7 0.00 0.00 0.00 67 1014.6
20260504204555 85 44 1.7 1.7 0.00 0.00 0.00 66 1014.6
20260504204055 85 119 2.6 2.6 0.00 0.00 0.00 66 1014.4
20260504203552 86 133 4.3 6.1 0.00 0.00 0.00 65 1014.5
20260504203050 86 106 2.6 3.5 0.00 0.00 0.00 65 1014.5
20260504202545 85 119 1.7 3.5 0.00 0.00 0.00 65 1014.8
20260504202042 85 72 2.6 2.6 0.00 0.00 0.00 66 1014.6
20260504201539 85 146 3.5 3.5 0.00 0.00 0.00 65 1014.5
20260504201037 86 108 2.6 5.2 0.00 0.00 0.00 65 1014.5
20260504200533 86 74 4.3 7.0 0.00 0.00 0.00 64 1014.5
20260504200030 85 96 3.5 5.2 0.00 0.00 0.00 68 1014.6
20260504195526 85 70 1.7 1.7 0.00 0.00 0.00 69 1014.7
20260504195023 86 110 7.8 9.6 0.00 0.00 0.00 66 1014.7
20260504194519 87 60 2.6 2.6 0.00 0.00 0.00 63 1014.7
20260504194014 86 113 3.5 3.5 0.00 0.00 0.00 64 1014.7
20260504193511 86 126 1.7 2.6 0.00 0.00 0.00 65 1014.9
20260504193010 85 144 0.9 0.9 0.00 0.00 0.00 68 1014.7
20260504192508 85 79 5.2 6.1 0.00 0.00 0.00 64 1014.6
20260504192006 85 87 7.0 8.7 0.00 0.00 0.00 64 1014.8
20260504191504 86 110 5.2 7.8 0.00 0.00 0.00 62 1014.6
20260504190959 87 107 3.5 3.5 0.00 0.00 0.00 63 1015.0
20260504190455 87 102 1.7 1.7 0.00 0.00 0.00 60 1014.9
20260504185952 87 127 0.9 0.9 0.00 0.00 0.00 61 1015.1
20260504185449 85 88 1.7 2.6 0.00 0.00 0.00 63 1015.0
20260504184945 85 80 4.3 5.2 0.00 0.00 0.00 63 1015.1
20260504184441 86 104 2.6 2.6 0.00 0.00 0.00 60 1015.2
20260504183936 88 113 3.5 3.5 0.00 0.00 0.00 60 1015.3
20260504183434 86 73 0.0 0.9 0.00 0.00 0.00 62 1015.2
20260504182932 85 72 1.7 2.6 0.00 0.00 0.00 63 1015.3
20260504182429 85 101 4.3 5.2 0.00 0.00 0.00 62 1015.3
20260504181926 87 101 3.5 5.2 0.00 0.00 0.00 61 1015.4
20260504181423 87 87 1.7 2.6 0.00 0.00 0.00 60 1015.5
20260504180922 87 188 3.5 3.5 0.00 0.00 0.00 57 1015.5
20260504180420 87 128 1.7 2.6 0.00 0.00 0.00 61 1015.4
20260504175918 85 68 0.9 0.9 0.00 0.00 0.00 63 1015.5
20260504175414 85 104 3.5 3.5 0.00 0.00 0.00 64 1015.6
20260504174912 87 81 5.2 6.1 0.00 0.00 0.00 61 1015.7
20260504174410 86 154 2.6 2.6 0.00 0.00 0.00 62 1015.7
20260504173907 85 59 2.6 2.6 0.00 0.00 0.00 65 1015.5
20260504173403 85 100 7.8 8.7 0.00 0.00 0.00 62 1015.9
20260504172900 86 118 3.5 5.2 0.00 0.00 0.00 61 1016.2
20260504172357 86 129 4.3 6.1 0.00 0.00 0.00 60 1015.9
20260504171852 87 105 3.5 3.5 0.00 0.00 0.00 59 1015.9
20260504171350 86 104 0.0 0.9 0.00 0.00 0.00 60 1016.0
20260504170847 86 175 4.3 6.1 0.00 0.00 0.00 59 1016.0
20260504170344 86 83 1.7 2.6 0.00 0.00 0.00 59 1016.3
20260504160302 85 115 3.5 5.2 0.00 0.00 0.00 60 1016.8
20260504150728 84 84 7.0 9.6 0.00 0.00 0.00 61 1017.2
20260504150224 84 145 4.3 7.0 0.00 0.00 0.00 64 1017.2
20260504141154 82 193 5.2 11.3 0.00 0.00 0.00 71 1017.2
20260504140650 82 89 1.7 2.6 0.00 0.00 0.00 73 1017.2
20260504140146 82 50 4.3 7.0 0.00 0.00 0.00 72 1017.3
20260504130614 80 90 3.5 6.1 0.00 0.00 0.00 77 1017.3
20260504130111 80 75 5.2 7.0 0.00 0.00 0.00 77 1017.5